| time (UTC) | temp C | wind direction | speed KPH | gust KPH | rain 1hr cm | rain 24hr cm | rain mn cm | humidity % | barometer mb |
| 20260506230431 | 13 | 223 | 3.2 | 6.4 | 0.00 | 0.56 | 0.51 | 88 | 1008.0 |
| 20260506225529 | 13 | 227 | 4.8 | 8.0 | 0.00 | 0.56 | 0.51 | 89 | 1007.9 |
| 20260506224531 | 13 | 196 | 1.6 | 4.8 | 0.00 | 0.56 | 0.51 | 90 | 1008.0 |
| 20260506224433 | 13 | 173 | 3.2 | 4.8 | 0.00 | 0.56 | 0.51 | 89 | 1007.9 |
| 20260506223530 | 13 | 165 | 6.4 | 17.7 | 0.00 | 0.56 | 0.51 | 90 | 1008.1 |
| 20260506222532 | 14 | 183 | 6.4 | 12.9 | 0.00 | 0.56 | 0.51 | 90 | 1008.1 |
| 20260506221533 | 14 | 203 | 1.6 | 4.8 | 0.00 | 0.56 | 0.51 | 90 | 1008.1 |
| 20260506220631 | 14 | 247 | 3.2 | 8.0 | 0.00 | 0.56 | 0.51 | 90 | 1008.2 |
| 20260506215634 | 14 | 200 | 4.8 | 12.9 | 0.00 | 0.56 | 0.51 | 90 | 1008.1 |
| 20260506213829 | 14 | 206 | 6.4 | 14.5 | 0.00 | 0.56 | 0.51 | 89 | 1008.1 |
| 20260506213731 | 14 | 140 | 4.8 | 11.3 | 0.00 | 0.56 | 0.51 | 90 | 1008.1 |
| 20260506212731 | 14 | 220 | 4.8 | 9.7 | 0.00 | 0.56 | 0.51 | 89 | 1008.1 |
| 20260506211731 | 15 | 200 | 6.4 | 17.7 | 0.00 | 0.56 | 0.51 | 88 | 1008.1 |
| 20260506210730 | 14 | 193 | 1.6 | 3.2 | 0.00 | 0.56 | 0.51 | 89 | 1008.2 |
| 20260506205747 | 14 | 161 | 6.4 | 14.5 | 0.03 | 0.56 | 0.51 | 89 | 1008.1 |
| 20260506203832 | 15 | 182 | 3.2 | 16.1 | 0.08 | 0.56 | 0.51 | 89 | 1008.4 |
| 20260506203732 | 15 | 207 | 8.0 | 22.5 | 0.08 | 0.56 | 0.51 | 89 | 1008.5 |
| 20260506202732 | 15 | 204 | 6.4 | 11.3 | 0.10 | 0.56 | 0.51 | 89 | 1008.5 |
| 20260506201830 | 15 | 210 | 4.8 | 14.5 | 0.15 | 0.56 | 0.51 | 89 | 1008.5 |
| 20260506200830 | 15 | 190 | 3.2 | 14.5 | 0.23 | 0.56 | 0.51 | 89 | 1008.7 |
| 20260506200731 | 15 | 203 | 1.6 | 4.8 | 0.23 | 0.56 | 0.51 | 89 | 1008.7 |
| 20260506195747 | 15 | 208 | 6.4 | 12.9 | 0.20 | 0.53 | 0.48 | 89 | 1008.7 |
| 20260506195646 | 15 | 177 | 4.8 | 11.3 | 0.23 | 0.53 | 0.48 | 88 | 1008.8 |
| 20260506193730 | 15 | 219 | 1.6 | 6.4 | 0.18 | 0.48 | 0.43 | 88 | 1009.0 |
| 20260506191731 | 15 | 112 | 0.0 | 1.6 | 0.13 | 0.41 | 0.33 | 88 | 1009.1 |
| 20260506190830 | 15 | 202 | 0.0 | 3.2 | 0.08 | 0.33 | 0.28 | 89 | 1009.2 |
| 20260506185830 | 15 | 243 | 3.2 | 6.4 | 0.10 | 0.33 | 0.28 | 89 | 1009.1 |
| 20260506185733 | 15 | 219 | 4.8 | 8.0 | 0.10 | 0.33 | 0.25 | 89 | 1009.2 |
| 20260506183831 | 15 | 174 | 4.8 | 8.0 | 0.13 | 0.30 | 0.25 | 88 | 1009.1 |
| 20260506182829 | 15 | 135 | 0.0 | 1.6 | 0.13 | 0.28 | 0.23 | 89 | 1009.6 |
| 20260506181830 | 15 | 337 | 0.0 | 0.0 | 0.18 | 0.28 | 0.23 | 89 | 1009.8 |
| 20260506180831 | 15 | 206 | 3.2 | 9.7 | 0.18 | 0.25 | 0.20 | 89 | 1010.1 |
| 20260506175847 | 15 | 220 | 1.6 | 3.2 | 0.15 | 0.23 | 0.18 | 89 | 1010.1 |
| 20260506174931 | 15 | 287 | 0.0 | 1.6 | 0.15 | 0.20 | 0.15 | 89 | 1010.2 |
| 20260506174832 | 15 | 157 | 0.0 | 0.0 | 0.15 | 0.20 | 0.15 | 88 | 1010.2 |
| 20260506173831 | 15 | 148 | 1.6 | 6.4 | 0.13 | 0.18 | 0.13 | 88 | 1010.5 |
| 20260506173729 | 15 | 145 | 1.6 | 6.4 | 0.13 | 0.18 | 0.13 | 88 | 1010.4 |
| 20260506173633 | 15 | 176 | 3.2 | 4.8 | 0.13 | 0.18 | 0.13 | 88 | 1010.6 |
| 20260506172631 | 15 | 212 | 1.6 | 6.4 | 0.08 | 0.13 | 0.08 | 87 | 1010.6 |
| 20260506172530 | 15 | 191 | 0.0 | 3.2 | 0.08 | 0.13 | 0.08 | 86 | 1010.7 |
| 20260506171531 | 15 | 213 | 4.8 | 8.0 | 0.05 | 0.10 | 0.05 | 84 | 1010.6 |
| 20260506165631 | 16 | 233 | 3.2 | 6.4 | 0.00 | 0.05 | 0.00 | 81 | 1010.6 |
| 20260506164633 | 16 | 207 | 8.0 | 14.5 | 0.00 | 0.05 | 0.00 | 79 | 1010.4 |
| 20260506164530 | 16 | 237 | 6.4 | 12.9 | 0.00 | 0.05 | 0.00 | 78 | 1010.6 |
| 20260506163531 | 17 | 234 | 4.8 | 11.3 | 0.00 | 0.05 | 0.00 | 76 | 1010.4 |
| 20260506161630 | 17 | 200 | 1.6 | 4.8 | 0.00 | 0.05 | 0.00 | 75 | 1010.5 |
| 20260506160630 | 17 | 183 | 3.2 | 20.9 | 0.00 | 0.05 | 0.00 | 75 | 1010.8 |
| 20260506155646 | 17 | 241 | 4.8 | 14.5 | 0.00 | 0.05 | 0.00 | 74 | 1011.0 |
| 20260506154630 | 17 | 177 | 8.0 | 17.7 | 0.00 | 0.05 | 0.00 | 75 | 1011.0 |
| 20260506154545 | 17 | 194 | 4.8 | 11.3 | 0.00 | 0.05 | 0.00 | 75 | 1011.1 |
| 20260506153530 | 17 | 214 | 9.7 | 16.1 | 0.00 | 0.05 | 0.00 | 74 | 1011.1 |
| 20260506152532 | 17 | 167 | 6.4 | 11.3 | 0.00 | 0.05 | 0.00 | 75 | 1011.3 |
| 20260506152446 | 17 | 253 | 3.2 | 6.4 | 0.00 | 0.05 | 0.00 | 74 | 1011.4 |
| 20260506151531 | 17 | 201 | 4.8 | 9.7 | 0.00 | 0.05 | 0.00 | 74 | 1011.4 |
| 20260506150532 | 17 | 159 | 4.8 | 9.7 | 0.00 | 0.05 | 0.00 | 74 | 1011.5 |
| 20260506144530 | 17 | 196 | 6.4 | 9.7 | 0.00 | 0.05 | 0.00 | 73 | 1011.3 |
| 20260506142630 | 18 | 134 | 3.2 | 11.3 | 0.00 | 0.05 | 0.00 | 72 | 1011.5 |
| 20260506141729 | 18 | 273 | 1.6 | 8.0 | 0.00 | 0.05 | 0.00 | 72 | 1011.4 |
| 20260506140729 | 17 | 191 | 9.7 | 17.7 | 0.00 | 0.05 | 0.00 | 74 | 1011.1 |
| 20260506135730 | 17 | 169 | 6.4 | 11.3 | 0.00 | 0.05 | 0.00 | 75 | 1011.1 |
| 20260506134732 | 17 | 142 | 6.4 | 12.9 | 0.00 | 0.05 | 0.00 | 77 | 1011.2 |
| 20260506131731 | 16 | 226 | 6.4 | 9.7 | 0.00 | 0.05 | 0.00 | 80 | 1011.9 |
| 20260506125731 | 16 | 207 | 8.0 | 17.7 | 0.00 | 0.05 | 0.00 | 80 | 1011.9 |
| 20260506125630 | 16 | 245 | 8.0 | 17.7 | 0.00 | 0.05 | 0.00 | 80 | 1012.1 |
| 20260506124629 | 15 | 234 | 9.7 | 19.3 | 0.00 | 0.05 | 0.00 | 81 | 1012.0 |
| 20260506123729 | 15 | 219 | 9.7 | 16.1 | 0.00 | 0.05 | 0.00 | 81 | 1012.0 |
| 20260506122729 | 15 | 216 | 6.4 | 11.3 | 0.00 | 0.05 | 0.00 | 81 | 1012.2 |
| 20260506121731 | 15 | 230 | 8.0 | 17.7 | 0.00 | 0.05 | 0.00 | 82 | 1011.8 |
| 20260506120731 | 15 | 238 | 4.8 | 9.7 | 0.00 | 0.05 | 0.00 | 82 | 1011.9 |
| 20260506115829 | 15 | 247 | 4.8 | 9.7 | 0.00 | 0.05 | 0.00 | 81 | 1011.8 |
| 20260506114832 | 15 | 229 | 6.4 | 17.7 | 0.00 | 0.05 | 0.00 | 82 | 1012.1 |
| 20260506113846 | 15 | 240 | 8.0 | 12.9 | 0.00 | 0.05 | 0.00 | 82 | 1012.3 |
| 20260506112929 | 15 | 161 | 1.6 | 4.8 | 0.00 | 0.05 | 0.00 | 83 | 1012.1 |
| 20260506111932 | 15 | 236 | 6.4 | 12.9 | 0.00 | 0.05 | 0.00 | 82 | 1012.3 |
| 20260506111831 | 15 | 223 | 4.8 | 8.0 | 0.00 | 0.05 | 0.00 | 83 | 1012.3 |
| 20260506105931 | 14 | 191 | 4.8 | 9.7 | 0.00 | 0.05 | 0.00 | 82 | 1012.2 |
| 20260506103931 | 14 | 239 | 3.2 | 6.4 | 0.00 | 0.05 | 0.00 | 83 | 1012.0 |
| 20260506102931 | 13 | 238 | 4.8 | 8.0 | 0.00 | 0.05 | 0.00 | 84 | 1012.0 |
| 20260506101030 | 13 | 222 | 8.0 | 16.1 | 0.00 | 0.05 | 0.00 | 84 | 1012.1 |
| 20260506100051 | 13 | 225 | 4.8 | 8.0 | 0.00 | 0.05 | 0.00 | 84 | 1011.9 |
| 20260506095946 | 13 | 192 | 4.8 | 8.0 | 0.00 | 0.05 | 0.00 | 84 | 1011.8 |
| 20260506095030 | 13 | 221 | 3.2 | 6.4 | 0.00 | 0.05 | 0.00 | 83 | 1011.9 |
| 20260506094032 | 13 | 218 | 6.4 | 14.5 | 0.00 | 0.05 | 0.00 | 83 | 1011.7 |
| 20260506093129 | 13 | 226 | 6.4 | 16.1 | 0.00 | 0.05 | 0.00 | 83 | 1012.0 |
| 20260506092130 | 13 | 209 | 6.4 | 16.1 | 0.00 | 0.05 | 0.00 | 83 | 1011.8 |
| 20260506091130 | 13 | 205 | 4.8 | 12.9 | 0.00 | 0.05 | 0.00 | 83 | 1011.8 |
| 20260506090131 | 13 | 157 | 6.4 | 11.3 | 0.00 | 0.05 | 0.00 | 82 | 1011.8 |
| 20260506084230 | 13 | 240 | 4.8 | 11.3 | 0.00 | 0.05 | 0.00 | 82 | 1011.9 |
| 20260506084128 | 13 | 216 | 3.2 | 4.8 | 0.00 | 0.05 | 0.00 | 81 | 1011.9 |
| 20260506083131 | 13 | 232 | 1.6 | 6.4 | 0.00 | 0.05 | 0.00 | 81 | 1012.0 |
| 20260506082131 | 13 | 247 | 1.6 | 6.4 | 0.00 | 0.05 | 0.00 | 80 | 1012.1 |
| 20260506081129 | 13 | 221 | 1.6 | 8.0 | 0.00 | 0.05 | 0.00 | 78 | 1012.0 |
| 20260506081029 | 13 | 214 | 1.6 | 8.0 | 0.00 | 0.05 | 0.00 | 79 | 1012.1 |
| 20260506072031 | 15 | 219 | 1.6 | 4.8 | 0.00 | 0.05 | 0.00 | 75 | 1012.2 |
| 20260506071030 | 15 | 236 | 4.8 | 9.7 | 0.00 | 0.05 | 0.00 | 73 | 1012.3 |
| 20260506062045 | 16 | 214 | 9.7 | 16.1 | 0.00 | 0.05 | 0.00 | 72 | 1012.0 |
| 20260506061030 | 15 | 214 | 3.2 | 16.1 | 0.00 | 0.05 | 0.00 | 72 | 1011.9 |
| 20260506050929 | 16 | 205 | 9.7 | 17.7 | 0.00 | 0.05 | 0.00 | 69 | 1012.1 |
| 20260506044831 | 16 | 202 | 3.2 | 8.0 | 0.00 | 0.05 | 0.00 | 69 | 1012.1 |
| 20260506043928 | 16 | 219 | 6.4 | 11.3 | 0.00 | 0.05 | 0.00 | 70 | 1012.4 |
| 20260506042945 | 16 | 186 | 3.2 | 11.3 | 0.00 | 0.05 | 0.00 | 71 | 1012.4 |
| 20260506042830 | 16 | 178 | 3.2 | 8.0 | 0.00 | 0.05 | 0.00 | 71 | 1012.4 |
| 20260506041829 | 16 | 187 | 8.0 | 12.9 | 0.00 | 0.05 | 0.00 | 72 | 1012.4 |
| 20260506040831 | 16 | 248 | 6.4 | 8.0 | 0.00 | 0.05 | 0.00 | 72 | 1012.5 |
| 20260506040728 | 16 | 230 | 1.6 | 4.8 | 0.00 | 0.05 | 0.00 | 73 | 1012.4 |
| 20260506035735 | 16 | 229 | 4.8 | 8.0 | 0.00 | 0.05 | 0.05 | 74 | 1012.3 |
| 20260506035636 | 16 | 210 | 3.2 | 6.4 | 0.00 | 0.05 | 0.05 | 75 | 1012.3 |
| 20260506034734 | 15 | 228 | 4.8 | 6.4 | 0.00 | 0.05 | 0.05 | 78 | 1012.3 |
| 20260506033735 | 15 | 210 | 6.4 | 9.7 | 0.00 | 0.05 | 0.05 | 81 | 1012.4 |
| 20260506031834 | 15 | 176 | 3.2 | 8.0 | 0.00 | 0.05 | 0.05 | 83 | 1012.1 |
| 20260506031735 | 15 | 193 | 3.2 | 6.4 | 0.00 | 0.05 | 0.05 | 83 | 1012.2 |
| 20260506030752 | 15 | 220 | 3.2 | 8.0 | 0.00 | 0.05 | 0.05 | 85 | 1012.3 |
| 20260506025833 | 15 | 247 | 1.6 | 4.8 | 0.00 | 0.05 | 0.05 | 86 | 1012.3 |
| 20260506024850 | 15 | 196 | 3.2 | 4.8 | 0.00 | 0.05 | 0.05 | 88 | 1012.3 |
| 20260506023934 | 15 | 212 | 3.2 | 4.8 | 0.00 | 0.05 | 0.05 | 88 | 1012.5 |
| 20260506023835 | 15 | 239 | 3.2 | 3.2 | 0.00 | 0.05 | 0.05 | 88 | 1012.5 |
| 20260506021835 | 15 | 199 | 1.6 | 4.8 | 0.00 | 0.05 | 0.05 | 89 | 1012.1 |
| 20260506020836 | 15 | 157 | 0.0 | 1.6 | 0.00 | 0.05 | 0.05 | 88 | 1012.1 |
| 20260506015935 | 15 | 157 | 0.0 | 0.0 | 0.00 | 0.05 | 0.05 | 89 | 1012.2 |
| 20260506015836 | 15 | 157 | 0.0 | 0.0 | 0.00 | 0.05 | 0.05 | 89 | 1012.2 |
| 20260506014737 | 15 | 157 | 0.0 | 0.0 | 0.00 | 0.05 | 0.05 | 88 | 1012.3 |
| 20260506012751 | 15 | 157 | 0.0 | 0.0 | 0.00 | 0.05 | 0.05 | 87 | 1012.1 |
| 20260506011837 | 15 | 148 | 1.6 | 3.2 | 0.00 | 0.05 | 0.05 | 86 | 1011.9 |
| 20260506011735 | 15 | 112 | 0.0 | 1.6 | 0.00 | 0.05 | 0.05 | 86 | 1011.9 |
| 20260506011634 | 16 | 112 | 0.0 | 3.2 | 0.00 | 0.05 | 0.05 | 86 | 1011.9 |
| 20260506004833 | 16 | 225 | 0.0 | 0.0 | 0.05 | 0.05 | 0.05 | 85 | 1011.9 |
| 20260506003834 | 16 | 180 | 0.0 | 0.0 | 0.05 | 0.05 | 0.05 | 83 | 1011.7 |
| 20260506003734 | 16 | 180 | 0.0 | 0.0 | 0.05 | 0.05 | 0.05 | 82 | 1011.8 |
| 20260506002737 | 16 | 180 | 0.0 | 1.6 | 0.05 | 0.05 | 0.05 | 79 | 1011.7 |
| 20260506001834 | 17 | 180 | 0.0 | 1.6 | 0.05 | 0.05 | 0.05 | 76 | 1011.7 |
| 20260506000933 | 18 | 22 | 0.0 | 0.0 | 0.05 | 0.05 | 0.05 | 67 | 1011.5 |
| 20260506000834 | 18 | 22 | 0.0 | 0.0 | 0.05 | 0.05 | 0.05 | 66 | 1011.6 |
| 20260505235853 | 20 | 157 | 0.0 | 0.0 | 0.03 | 0.03 | 0.03 | 55 | 1011.1 |
| 20260505234936 | 21 | 337 | 8.0 | 9.7 | 0.00 | 0.00 | 0.00 | 46 | 1010.6 |
| 20260505232933 | 22 | 252 | 4.8 | 9.7 | 0.00 | 0.00 | 0.00 | 46 | 1009.3 |
| 20260505231934 | 22 | 247 | 3.2 | 8.0 | 0.00 | 0.00 | 0.00 | 45 | 1009.0 |